CZ-7A Y14 Stage 3

Debris
NORAD ID: 65564 Int'l Des: 2025-202 Owner: CASC Country: CN
MEOELLIPTICALHEO_ELLIPTICAL

Über CZ-7A Y14 Stage 3

Beschreibung wird geladen...

Höhenverlauf

Altitude vs Time

uPlot chart will show altitude changes over time

Zweizeiliger Elementsatz

1 65564U 25202B 25302.09724866 .23107890 -12538-4 82846-3 0 9996
2 65564 20.0158 218.2273 0920381 88.6180 281.9344 14.36108296 5256
Epoch: 29. Okt. 2025 • Age: 3804 hours

Aktueller Status

Position data unavailable
Startdatum 9. Sept. 2025
Alter 0.5 years
Verglühungsdatum 31. Okt. 2025
Typ debris

Technische Details

Klassifizierung Launch Vehicle Stage
Masse 8400.00 kg
Trockenmasse 2800.00 kg
Gesamtmasse 2800.00 kg
Länge 12.40 m
Durchmesser 3.00 m
Spannweite 12.40 m
Form Cyl
Hersteller CALT
Bus-Typ CZ-3A Stage 3
Phasenstatus Unknown Transfer Status
Besitzer/Staat CASC/CN

Große Konstellationen

Loading constellations...